Location: *
(44.3526°S, 44.9014°W)
Time: 00:02:58
(UTC+00:00)

USA 267 - Pass Details

Date: 13 May 2025
Orbit: 1101 x 1106 km, 123.0° (Epoch: 01 May)

Event Time Altitude Azimuth Distance (km) Brightness Sun altitude
Exits shadow 23:24:11 37° 212° (SSW) 1,675 4.4 -39.2°
Drops below altitude 10° 23:28:03 10° 227° (SW) 2,996 6.1 -39.8°
Sets 23:30:34 0° 230° (SW) 3,957 6.9 -40.3°
